Location: Arborea
(39.7744°N, 8.5819°E)
Time: 01:01:16
(UTC+00:00)

Cosmos 1000 Rocket - Pass Details

Date: 05 October 2023
Orbit: 952 x 993 km, 82.9° (Epoch: 03 December)

Event Time Altitude Azimuth Distance (km) Brightness Sun altitude
Exits shadow 21:10:34 19° 333° (NNW) 2,177 6.7 -45.4°
Drops below altitude 10° 21:12:38 10° 347° (NNW) 2,764 7.3 -45.7°
Sets 21:15:32 0° 358° (N) 3,715 8.0 -46.1°
